Weather Service Report


157 
ASUS44 KEWX 251411
RWRTX 
SOUTH TEXAS REGIONAL WEATHER ROUNDUP
NATIONAL WEATHER SERVICE AUSTIN/SAN ANTONIO TX
900 AM CDT SAT APR 25 2015

NOTE: "FAIR" INDICATED FEW OR NO CLOUDS BELOW 12,000 FEET WITH NO
SIGNIFICANT WEATHER AND/OR OBSTRUCTIONS TO VISIBILITY.

* - THESE STATIONS ARE NOT NWS OR FAA STATIONS...AND ARE NOT SUBJECT
    TO NWS AND FAA QUALITY CONTROL.
 
TXZ171-172-183>190-251500-
TEXAS HILL COUNTRY AND EDWARDS PLATEAU
  
CITY           SKY/WX    TMP DP  RH WIND       PRES   REMARKS
JUNCTION       SUNNY     65  59  81 W3        29.88R                  
*LLANO         SUNNY     68  68 100 SW5       29.86S                  
BURNET         SUNNY     69  66  90 SW3       29.85R                  
*HORSESHOE BAY SUNNY     73  69  87 SW3       29.84S                  
*KERRVILLE     FOG       69  68  96 CALM      29.87R VSB 1            
*FREDERICKSBRG SUNNY     69  65  86 CALM      29.87S                  
*ROCKSPRINGS   SUNNY     70  48  46 NW9       29.92R                  
*BOERNE STAGE  MOSUNNY   68  66  94 N3        29.85S                  
*CASTROVILLE   MOSUNNY   70  69  97 CALM      29.84R                  
HONDO          NOT AVBL                                               
*UVALDE        MOSUNNY   65  65  98 CALM      29.85S                  
DEL RIO        PTSUNNY   70  69  97 W3        29.86S FOG              
LAUGHLIN AFB   PTSUNNY   70  67  89 NW7       29.86R                  
CARRIZO SPRGS  PTSUNNY   70  64  83 CALM      29.83R                  
$$

TXZ173-191>194-202-209-217>225-228-251500-
CENTRAL AND SOUTH CENTRAL TEXAS
  
CITY           SKY/WX    TMP DP  RH WIND       PRES   REMARKS
GEORGETOWN     MOSUNNY   73  70  88 S6        29.81R FOG              
AUSTIN/BERGSTM CLOUDY    67  66  97 S3        29.81F                  
AUSTIN/MABRY   PTSUNNY   71  70  96 CALM      29.82F                  
*AUSTIN/EXEC   CLOUDY    68  68 100 S3        29.82F                  
*LAGO VISTA    FOG       73  71  94 W5        29.84S VSB<1/4          
SAN MARCOS     SUNNY     66  64  94 NW5       29.81F                  
NEW BRAUNFELS  MOSUNNY   70  68  93 W3        29.80R                  
RANDOLPH AFB   MOSUNNY   68  67  98 NW3       29.82R                  
PT SAN ANTONIO MOSUNNY   68  68  99 CALM      29.81R                  
SAN ANTONIO    MOSUNNY   71  67  87 N5        29.83S                  
STINSON FIELD  MOSUNNY   69  66  90 N3        29.81R                  
*PLEASANTON    PTSUNNY   69  65  89 CALM      29.82R                  
*LA GRANGE     DRIZZLE   67  66  96 CALM      29.79F                  
*GIDDINGS      CLOUDY    66  64  94 NW3       29.85R                  
*GONZALES      TSTM     N/A N/A N/A SE9       29.80R                  
$$

TXZ163>164-176>182-195>201-210>213-226-227-235-251500-
SOUTHEAST TEXAS
  
CITY           SKY/WX    TMP DP  RH WIND       PRES   REMARKS
COLLEGE STN    CLOUDY    70  67  90 SW6       29.78F                  
*BRYAN         CLOUDY    70  69  96 SW6       29.80R                  
*CALDWELL      CLOUDY    66  66 100 SW6       29.83R                  
*CROCKETT      NOT AVBL                                               
*BRENHAM       CLOUDY    69  67  94 SW6       29.81R                  
HUNTSVILLE     LGT RAIN  71  67  87 S8        29.79F                  
CONROE         LGT RAIN  70  67  90 S3        29.82R FOG              
HOUSTON BUSH   RAIN      68  65  90 CALM      29.83F                  
HOUSTON HOBBY  LGT RAIN  68  64  87 NW10      29.81S                  
*HOUSTON SW AP TSTM      66  65  96 CALM      29.83F                  
PEARLAND       CLOUDY    68  63  84 NW9       29.84F                  
HOUSTON HOOKS  LGT RAIN  67  64  90 CALM      29.80F                  
ELLINGTON FLD  CLOUDY    68  64  88 NW9       29.84R                  
SUGAR LAND     CLOUDY    66  63  90 CALM      29.83F                  
*HOUSTON EXEC  CLOUDY    64  64 100 SE7       29.83F                  
*CLEVELAND MUN TSTM      70  69  95 CALM      29.85F                  
*WHARTON       TSTM      66  64  94 NE8       29.82R                  
*COLUMBUS      CLOUDY    68  67  96 SW3       29.80S                  
$$

TXZ214>216-236>238-251500-
THE UPPER TEXAS COAST
  
CITY           SKY/WX    TMP DP  RH WIND       PRES   REMARKS
*ORANGE        CLOUDY    75  72  90 NW10G17   29.81S FOG              
PORT ARTHUR    TSTM      74  72  93 NW26G40   29.80R FOG              
GALVESTON      TSTM      70  69  97 NW30G43   29.82R VSB 1            
ANGLETON       TSTM      65  64  97 N22G32    29.77F FOG              
*BAY CITY      RAIN      67  67 100 N9        29.84S                  
PALACIOS       RAIN      68  66  93 NE12      29.83R                  
$$

TXZ229>234-239>247-251500-
TEXAS COASTAL BEND AND RIO GRANDE PLAINS
  
CITY           SKY/WX    TMP DP  RH WIND       PRES   REMARKS
VICTORIA       LGT RAIN  68  67  96 NE6       29.81S                  
*BEEVILLE      CLOUDY    70  70  99 NE7       29.81R                  
ROCKPORT       CLOUDY    76  74  93 N8        29.78R FOG              
*PORT ARANSAS  CLOUDY    75  74  95 N10       29.78R FOG              
*PORT LAVACA   LGT RAIN  69  67  93 N10       29.80S                  
*INGLESIDE     CLOUDY    77  74  92 N7        29.78S FOG              
CORPUS CHRISTI CLOUDY    76  72  87 N5        29.79R                  
CORPUS NAS     CLOUDY    75  74  96 N13       29.79R FOG              
*ROBSTOWN      CLOUDY    76  76 100 MISG      29.79S FOG              
ALICE          CLOUDY    77  74  90 NE5       29.79R FOG              
KINGSVILLE NAS CLOUDY    78  75  90 N8        29.78R FOG              
COTULLA        PTSUNNY   72  64  76 N6        29.82R                  
*FAITH RANCH   CLOUDY    72  68  88 N8        29.85R                  
LAREDO         PTSUNNY   77  74  90 NE18      29.83R FOG              
$$

TXZ248>255-251500-
DEEP SOUTH TEXAS
  
CITY           SKY/WX    TMP DP  RH WIND       PRES   REMARKS
BROWNSVILLE    MOSUNNY   82  77  84 S14       29.76R HAZE    HX  90   
PORT ISABEL    CLOUDY    80  76  87 S12       29.74R FOG              
*SOUTH PADRE     N/A    N/A N/A N/A MISG        N/A                   
HARLINGEN      CLOUDY    81  78  91 S16       29.73R FOG              
*HEBBRONVILLE  FOG       75  74  95 NW5       29.81R VSB 1            
MCALLEN        CLOUDY    81  77  88 S12       29.76R FOG              
*WESLACO       CLOUDY    79  75  87 S10       29.75R FOG              
FALFURRIAS     CLOUDY    77  73  88 N7        29.78R                  
EDINBURG       CLOUDY    82  77  85 S10       29.75R FOG              
*ZAPATA        PTSUNNY   75  74  98 N5        29.79R FOG              
$$

TXZ213>215-236>238-242>244-246-247-251-254-255-251500-
CMAN STATIONS
  
STATION/POSITION TIME  TEMP    WIND        PRES    WAVE
                       AIR SEA DIR/SP/G            HT/PER
                 (UTC) (F)     (DEG/KT/KT) (MB)    (FT/S)
$$

GMZ080-GMZ150>470-251500-
OFFSHORE BUOY REPORTS
  
STATION/POSITION TIME  TEMP    WIND        PRES    WAVE
                       AIR SEA DIR/SP/G            HT/PER
                 (UTC) (F)     (DEG/KT/KT) (MB)    (FT/S)
$$

Return to Home page


Western Regional Climate Center, wrcc@dri.edu